Find Starlink 31183

NORAD ID: 58747 Int'l Des: 2024-005 Owner: SPXS Country: US Constellation: starlink operational
LEOCIRCULAR

現在のビュー

3D地球を読み込み中...

About Starlink 31183

Starlink 31183 (NORAD 58747) is a starlink constellation satellite (v2 mini) launched Jan 7, 2024 by SPXS of US. It operates in LEO, CIRCULAR orbit with a mass of 730.00 kg.

Starlink 31183について

説明を読み込み中...

次回通過

Passes for default location (London). Set your location on the main map for personalized predictions.

高度履歴

Loading altitude history...

軌道要素

1 58747U 24005V 26167.30547974 -.00004530 00000-0 -15511-3 0 9993
2 58747 43.0045 23.0061 0001220 267.1195 92.9517 15.27598534135626
Epoch: Jun 16, 2026 • Age: 12 hours

現在のステータス

高度 495.5 km
速度 7.62 km/s
衛星直下点 -43.03°S, 97.82°E
打ち上げ日 Jan 7, 2024
運用期間 2.4 years
タイプ internet

技術仕様

分類 Payload
質量 730.00 kg
乾燥質量 700.00 kg
総質量 730.00 kg
長さ 0.30 m
直径 4.10 m
スパン 29.00 m
形状 Box + pan
製造者 SPXS
バスタイプ Starlink V2M
フェーズステータス In Orbit
所有者/国 SPXS/US

Most Searched